Time,TemperatureF,DewpointF,PressureIn,WindDirection,WindDirectionDegrees,WindSpeedMPH,WindSpeedGustMPH,Humidity,HourlyPrecipIn,Conditions,Clouds,dailyrainin,SoftwareType,DateUTC
2013-02-27 00:02:00,29.5,27.7,29.78,NW,313,2.0,3.0,93,0.00,,SKC,0.00,VWS V14.01,2013-02-27 06:02:00,
2013-02-27 00:07:00,29.5,27.7,29.78,NW,315,2.0,9.0,93,0.00,,SKC,0.00,VWS V14.01,2013-02-27 06:07:00,
2013-02-27 00:12:00,29.4,27.6,29.78,NW,322,3.0,10.0,93,0.00,,SKC,0.00,VWS V14.01,2013-02-27 06:12:00,
2013-02-27 00:17:00,29.4,27.6,29.78,NW,312,4.0,6.0,93,0.00,,SKC,0.00,VWS V14.01,2013-02-27 06:17:00,
2013-02-27 00:22:00,29.4,27.6,29.78,NW,317,2.0,7.0,93,0.00,,SKC,0.00,VWS V14.01,2013-02-27 06:22:00,
2013-02-27 00:27:00,29.4,27.6,29.78,NW,321,7.0,9.0,93,0.00,,SKC,0.00,VWS V14.01,2013-02-27 06:27:00,
2013-02-27 00:32:00,29.4,27.9,29.78,NW,315,0.0,9.0,94,0.00,,SKC,0.00,VWS V14.01,2013-02-27 06:32:00,
2013-02-27 00:37:00,29.4,27.9,29.78,NW,319,5.0,7.0,94,0.00,,SKC,0.00,VWS V14.01,2013-02-27 06:37:00,
2013-02-27 00:42:00,29.3,27.8,29.78,NW,323,5.0,7.0,94,0.00,,SKC,0.00,VWS V14.01,2013-02-27 06:42:00,
2013-02-27 00:47:00,29.4,27.9,29.78,NW,317,0.0,6.0,94,0.00,,SKC,0.00,VWS V14.01,2013-02-27 06:47:00,
2013-02-27 00:52:00,29.3,27.8,29.78,NNW,330,4.0,7.0,94,0.00,,SKC,0.00,VWS V14.01,2013-02-27 06:52:00,
2013-02-27 00:57:00,29.3,27.8,29.78,NNW,328,6.0,9.0,94,0.00,,SKC,0.00,VWS V14.01,2013-02-27 06:57:00,
2013-02-27 01:02:00,29.3,27.8,29.77,NW,307,0.0,9.0,94,0.00,,SKC,0.00,VWS V14.01,2013-02-27 07:02:00,
2013-02-27 01:07:00,29.3,27.8,29.77,NNW,327,0.0,8.0,94,0.00,,SKC,0.00,VWS V14.01,2013-02-27 07:07:00,
2013-02-27 01:12:00,29.3,27.8,29.77,NW,318,4.0,8.0,94,0.00,,SKC,0.00,VWS V14.01,2013-02-27 07:12:00,
2013-02-27 01:17:00,29.3,27.8,29.77,NNW,340,0.0,6.0,94,0.00,,SKC,0.00,VWS V14.01,2013-02-27 07:17:00,
2013-02-27 01:22:00,29.3,27.8,29.77,NNW,337,0.0,6.0,94,0.00,,SKC,0.00,VWS V14.01,2013-02-27 07:22:00,
2013-02-27 01:27:00,29.3,27.8,29.77,NNW,327,2.0,8.0,94,0.00,,SKC,0.00,VWS V14.01,2013-02-27 07:27:00,
2013-02-27 01:32:00,29.4,27.9,29.77,NNW,327,1.0,8.0,94,0.00,,SKC,0.00,VWS V14.01,2013-02-27 07:32:00,
2013-02-27 01:37:00,29.4,27.9,29.77,NW,325,4.0,6.0,94,0.00,,SKC,0.00,VWS V14.01,2013-02-27 07:37:00,
2013-02-27 01:42:00,29.3,27.8,29.78,NW,317,0.0,6.0,94,0.00,,SKC,0.00,VWS V14.01,2013-02-27 07:42:00,
2013-02-27 01:47:00,29.3,27.8,29.78,NW,306,2.0,6.0,94,0.00,,SKC,0.00,VWS V14.01,2013-02-27 07:47:00,
2013-02-27 01:52:00,29.3,27.8,29.78,NW,309,0.0,6.0,94,0.00,,SKC,0.00,VWS V14.01,2013-02-27 07:52:00,
2013-02-27 01:57:00,29.3,27.8,29.78,NW,305,0.0,6.0,94,0.00,,SKC,0.00,VWS V14.01,2013-02-27 07:57:00,
2013-02-27 02:28:00,29.2,27.7,29.78,WNW,290,0.0,0.0,94,0.00,,SKC,0.00,VWS V14.01,2013-02-27 08:28:00,
2013-02-27 02:33:00,29.2,27.7,29.78,WNW,290,0.0,4.0,94,0.00,,SKC,0.00,VWS V14.01,2013-02-27 08:33:00,
2013-02-27 02:38:00,29.2,27.7,29.78,WNW,290,0.0,0.0,94,0.00,,SKC,0.00,VWS V14.01,2013-02-27 08:38:00,
2013-02-27 02:43:00,29.2,27.7,29.77,WNW,292,0.0,5.0,94,0.00,,SKC,0.00,VWS V14.01,2013-02-27 08:43:00,
2013-02-27 02:48:00,29.2,27.7,29.77,West,281,0.0,4.0,94,0.00,,SKC,0.00,VWS V14.01,2013-02-27 08:48:00,
2013-02-27 02:53:00,29.2,27.7,29.77,WNW,290,0.0,5.0,94,0.00,,SKC,0.00,VWS V14.01,2013-02-27 08:53:00,
2013-02-27 02:58:00,29.2,27.7,29.76,WNW,291,0.0,4.0,94,0.00,,SKC,0.00,VWS V14.01,2013-02-27 08:58:00,
2013-02-27 03:03:00,29.1,27.6,29.76,West,277,0.0,6.0,94,0.00,,SKC,0.00,VWS V14.01,2013-02-27 09:03:00,
2013-02-27 03:08:00,29.1,27.6,29.76,WNW,285,0.0,4.0,94,0.00,,SKC,0.00,VWS V14.01,2013-02-27 09:08:00,
2013-02-27 03:13:00,29.1,27.6,29.76,WNW,286,2.0,5.0,94,0.00,,SKC,0.00,VWS V14.01,2013-02-27 09:13:00,
2013-02-27 03:18:00,29.0,27.5,29.76,WNW,292,2.0,9.0,94,0.00,,SKC,0.00,VWS V14.01,2013-02-27 09:18:00,
2013-02-27 03:23:00,29.1,27.6,29.76,WNW,302,2.0,9.0,94,0.00,,SKC,0.00,VWS V14.01,2013-02-27 09:23:00,
2013-02-27 03:28:00,29.0,27.5,29.77,WNW,294,0.0,5.0,94,0.00,,SKC,0.00,VWS V14.01,2013-02-27 09:28:00,
2013-02-27 03:33:00,29.0,27.5,29.77,WNW,293,4.0,8.0,94,0.00,,SKC,0.00,VWS V14.01,2013-02-27 09:33:00,
2013-02-27 03:38:00,29.0,27.5,29.77,NW,309,1.0,9.0,94,0.00,,SKC,0.00,VWS V14.01,2013-02-27 09:38:00,
2013-02-27 03:43:00,29.0,27.5,29.77,WNW,295,2.0,9.0,94,0.00,,SKC,0.00,VWS V14.01,2013-02-27 09:43:00,
2013-02-27 03:48:00,29.0,27.5,29.77,WNW,292,0.0,7.0,94,0.00,,SKC,0.00,VWS V14.01,2013-02-27 09:48:00,
2013-02-27 03:53:00,28.9,27.4,29.77,NW,308,5.0,7.0,94,0.00,,SKC,0.00,VWS V14.01,2013-02-27 09:53:00,
2013-02-27 03:58:00,28.9,27.4,29.77,NW,310,0.0,10.0,94,0.00,,SKC,0.00,VWS V14.01,2013-02-27 09:58:00,
2013-02-27 04:03:00,28.8,27.3,29.77,NW,325,2.0,10.0,94,0.00,,SKC,0.00,VWS V14.01,2013-02-27 10:03:00,
2013-02-27 04:08:00,28.8,27.3,29.77,NW,310,4.0,7.0,94,0.00,,SKC,0.00,VWS V14.01,2013-02-27 10:08:00,
2013-02-27 04:13:00,28.8,27.0,29.78,WNW,301,3.0,10.0,93,0.00,,SKC,0.00,VWS V14.01,2013-02-27 10:13:00,
2013-02-27 04:18:00,28.8,27.0,29.78,WNW,296,1.0,5.0,93,0.00,,SKC,0.00,VWS V14.01,2013-02-27 10:18:00,
2013-02-27 04:23:00,28.8,27.0,29.79,WNW,294,3.0,9.0,93,0.00,,SKC,0.00,VWS V14.01,2013-02-27 10:23:00,
2013-02-27 04:28:00,28.7,26.9,29.79,WNW,303,3.0,10.0,93,0.00,,SKC,0.00,VWS V14.01,2013-02-27 10:28:00,
2013-02-27 04:33:00,28.8,27.0,29.80,NW,310,4.0,10.0,93,0.00,,SKC,0.00,VWS V14.01,2013-02-27 10:33:00,
2013-02-27 04:38:00,28.8,27.0,29.80,WNW,296,0.0,5.0,93,0.00,,SKC,0.00,VWS V14.01,2013-02-27 10:38:00,
2013-02-27 04:43:00,28.8,27.0,29.80,WNW,289,2.0,10.0,93,0.00,,SKC,0.00,VWS V14.01,2013-02-27 10:43:00,
2013-02-27 04:48:00,28.8,27.0,29.80,NW,306,5.0,10.0,93,0.00,,SKC,0.00,VWS V14.01,2013-02-27 10:48:00,
2013-02-27 04:53:00,28.7,26.9,29.80,NW,315,14.0,14.0,93,0.00,,SKC,0.00,VWS V14.01,2013-02-27 10:53:00,
2013-02-27 04:58:00,28.7,26.9,29.80,WNW,302,5.0,10.0,93,0.00,,SKC,0.00,VWS V14.01,2013-02-27 10:58:00,
2013-02-27 05:03:00,28.6,26.8,29.80,WNW,293,4.0,10.0,93,0.00,,SKC,0.00,VWS V14.01,2013-02-27 11:03:00,
2013-02-27 05:08:00,28.5,26.7,29.81,WNW,290,6.0,8.0,93,0.00,,SKC,0.00,VWS V14.01,2013-02-27 11:08:00,
2013-02-27 05:13:00,28.4,26.9,29.81,WNW,294,5.0,12.0,94,0.00,,SKC,0.00,VWS V14.01,2013-02-27 11:13:00,
2013-02-27 05:18:00,28.3,26.8,29.81,NW,304,3.0,11.0,94,0.00,,SKC,0.00,VWS V14.01,2013-02-27 11:18:00,
2013-02-27 05:23:00,28.2,26.7,29.81,WNW,303,3.0,11.0,94,0.00,,SKC,0.00,VWS V14.01,2013-02-27 11:23:00,
2013-02-27 05:28:00,28.2,26.7,29.81,NW,305,3.0,7.0,94,0.00,,SKC,0.00,VWS V14.01,2013-02-27 11:28:00,
2013-02-27 05:33:00,28.2,26.7,29.81,WNW,290,4.0,11.0,94,0.00,,SKC,0.00,VWS V14.01,2013-02-27 11:33:00,
2013-02-27 05:38:00,28.2,26.4,29.81,WNW,293,10.0,11.0,93,0.00,,SKC,0.00,VWS V14.01,2013-02-27 11:38:00,
2013-02-27 05:43:00,28.2,26.4,29.82,NW,311,3.0,11.0,93,0.00,,SKC,0.00,VWS V14.01,2013-02-27 11:43:00,
2013-02-27 05:48:00,28.2,26.4,29.82,WNW,295,5.0,9.0,93,0.00,,SKC,0.00,VWS V14.01,2013-02-27 11:48:00,
2013-02-27 05:53:00,28.2,26.4,29.82,WNW,294,6.0,10.0,93,0.00,,SKC,0.00,VWS V14.01,2013-02-27 11:53:00,
2013-02-27 05:58:00,28.2,26.4,29.82,WNW,293,2.0,7.0,93,0.00,,SKC,0.00,VWS V14.01,2013-02-27 11:58:00,
2013-02-27 06:03:00,28.2,26.4,29.83,NW,306,0.0,6.0,93,0.00,,SKC,0.00,VWS V14.01,2013-02-27 12:03:00,
2013-02-27 06:09:00,28.2,26.2,29.83,WNW,294,1.0,9.0,92,0.00,,SKC,0.00,VWS V14.01,2013-02-27 12:09:00,
2013-02-27 06:14:00,28.3,26.5,29.83,WNW,293,6.0,9.0,93,0.00,,SKC,0.00,VWS V14.01,2013-02-27 12:14:00,
2013-02-27 06:19:00,28.3,26.3,29.83,WNW,292,1.0,10.0,92,0.00,,SKC,0.00,VWS V14.01,2013-02-27 12:19:00,
2013-02-27 06:24:00,28.3,26.3,29.83,WNW,289,3.0,11.0,92,0.00,,SKC,0.00,VWS V14.01,2013-02-27 12:24:00,
2013-02-27 06:29:00,28.3,26.3,29.83,WNW,286,3.0,9.0,92,0.00,,SKC,0.00,VWS V14.01,2013-02-27 12:29:00,
2013-02-27 06:34:00,28.3,26.3,29.83,West,279,9.0,10.0,92,0.00,,SKC,0.00,VWS V14.01,2013-02-27 12:34:00,
2013-02-27 06:39:00,28.2,26.2,29.83,NW,308,9.0,10.0,92,0.00,,SKC,0.00,VWS V14.01,2013-02-27 12:39:00,
2013-02-27 06:44:00,28.0,25.7,29.83,WNW,288,3.0,10.0,91,0.00,,SKC,0.00,VWS V14.01,2013-02-27 12:44:00,
2013-02-27 06:49:00,27.9,25.6,29.83,WNW,296,2.0,9.0,91,0.00,,SKC,0.00,VWS V14.01,2013-02-27 12:49:00,
2013-02-27 06:54:00,27.9,25.6,29.83,WNW,300,3.0,12.0,91,0.00,,SKC,0.00,VWS V14.01,2013-02-27 12:54:00,
2013-02-27 06:59:00,27.7,25.4,29.83,WNW,294,4.0,12.0,91,0.00,,SKC,0.00,VWS V14.01,2013-02-27 12:59:00,
2013-02-27 07:04:00,27.7,25.4,29.84,WNW,303,3.0,12.0,91,0.00,,SKC,0.00,VWS V14.01,2013-02-27 13:04:00,
2013-02-27 07:09:00,27.6,25.3,29.84,WNW,296,4.0,9.0,91,0.00,,SKC,0.00,VWS V14.01,2013-02-27 13:09:00,
2013-02-27 07:14:00,27.5,25.2,29.84,WNW,298,5.0,12.0,91,0.00,,SKC,0.00,VWS V14.01,2013-02-27 13:14:00,
2013-02-27 07:19:00,27.5,25.2,29.84,WNW,298,3.0,12.0,91,0.00,,SKC,0.00,VWS V14.01,2013-02-27 13:19:00,
2013-02-27 07:24:00,27.4,25.1,29.84,NW,311,3.0,13.0,91,0.00,,SKC,0.00,VWS V14.01,2013-02-27 13:24:00,
2013-02-27 07:29:00,27.3,25.0,29.85,WNW,288,1.0,11.0,91,0.00,,SKC,0.00,VWS V14.01,2013-02-27 13:29:00,
2013-02-27 07:34:00,27.3,25.0,29.85,WNW,292,3.0,11.0,91,0.00,,SKC,0.00,VWS V14.01,2013-02-27 13:34:00,
2013-02-27 07:39:00,27.2,24.9,29.85,WNW,294,12.0,13.0,91,0.00,,SKC,0.00,VWS V14.01,2013-02-27 13:39:00,
2013-02-27 07:44:00,27.2,24.9,29.86,NW,309,2.0,13.0,91,0.00,,SKC,0.00,VWS V14.01,2013-02-27 13:44:00,
2013-02-27 07:49:00,27.1,24.6,29.86,NW,314,5.0,14.0,90,0.00,,SKC,0.00,VWS V14.01,2013-02-27 13:49:00,
2013-02-27 07:54:00,27.1,24.6,29.85,WNW,300,2.0,14.0,90,0.00,,SKC,0.00,VWS V14.01,2013-02-27 13:54:00,
2013-02-27 07:59:00,27.1,24.6,29.86,NNW,339,9.0,9.0,90,0.00,,SKC,0.00,VWS V14.01,2013-02-27 13:59:00,
2013-02-27 08:04:00,27.0,24.5,29.86,NW,305,13.0,13.0,90,0.00,,SKC,0.00,VWS V14.01,2013-02-27 14:04:00,
2013-02-27 08:09:00,27.0,24.5,29.86,NW,306,4.0,13.0,90,0.00,,SKC,0.00,VWS V14.01,2013-02-27 14:09:00,
2013-02-27 08:14:00,27.0,24.5,29.87,WNW,290,4.0,4.0,90,0.00,,SKC,0.00,VWS V14.01,2013-02-27 14:14:00,
2013-02-27 08:19:00,27.0,24.5,29.86,NW,317,12.0,14.0,90,0.00,,SKC,0.00,VWS V14.01,2013-02-27 14:19:00,
2013-02-27 08:24:00,26.9,24.4,29.86,NW,312,3.0,3.0,90,0.00,,SKC,0.00,VWS V14.01,2013-02-27 14:24:00,
2013-02-27 08:29:00,26.9,24.4,29.86,NNW,327,8.0,13.0,90,0.00,,SKC,0.00,VWS V14.01,2013-02-27 14:29:00,
2013-02-27 08:34:00,26.9,24.4,29.86,NNW,327,12.0,12.0,90,0.00,,SKC,0.00,VWS V14.01,2013-02-27 14:34:00,
2013-02-27 08:39:00,26.9,24.1,29.86,NW,313,13.0,15.0,89,0.00,,SKC,0.00,VWS V14.01,2013-02-27 14:39:00,
2013-02-27 08:44:00,26.9,24.1,29.86,WNW,296,6.0,10.0,89,0.00,,SKC,0.00,VWS V14.01,2013-02-27 14:44:00,
2013-02-27 08:49:00,27.0,24.2,29.86,WNW,296,2.0,14.0,89,0.00,,SKC,0.00,VWS V14.01,2013-02-27 14:49:00,
2013-02-27 08:54:00,27.1,24.3,29.86,West,279,3.0,4.0,89,0.00,,SKC,0.00,VWS V14.01,2013-02-27 14:54:00,
2013-02-27 08:59:00,27.2,24.4,29.86,WNW,303,1.0,15.0,89,0.00,,SKC,0.00,VWS V14.01,2013-02-27 14:59:00,
2013-02-27 09:04:00,27.3,24.5,29.86,WNW,291,4.0,4.0,89,0.00,,SKC,0.00,VWS V14.01,2013-02-27 15:04:00,
2013-02-27 09:09:00,27.4,24.6,29.86,WNW,290,4.0,13.0,89,0.00,,SKC,0.00,VWS V14.01,2013-02-27 15:09:00,
2013-02-27 09:14:00,27.4,24.3,29.86,WNW,292,7.0,7.0,88,0.00,,SKC,0.00,VWS V14.01,2013-02-27 15:14:00,
2013-02-27 09:19:00,27.6,24.5,29.86,WNW,290,5.0,11.0,88,0.00,,SKC,0.00,VWS V14.01,2013-02-27 15:19:00,
2013-02-27 09:24:00,27.8,24.7,29.86,WNW,285,3.0,4.0,88,0.00,,SKC,0.00,VWS V14.01,2013-02-27 15:24:00,
2013-02-27 09:29:00,28.1,24.7,29.86,WNW,287,6.0,12.0,87,0.00,,SKC,0.00,VWS V14.01,2013-02-27 15:29:00,
2013-02-27 09:34:00,28.3,24.9,29.86,NW,308,9.0,9.0,87,0.00,,SKC,0.00,VWS V14.01,2013-02-27 15:34:00,
2013-02-27 09:39:00,28.9,25.5,29.86,West,271,4.0,10.0,87,0.00,,SKC,0.00,VWS V14.01,2013-02-27 15:39:00,
2013-02-27 09:44:00,29.4,25.7,29.86,WNW,285,0.0,4.0,86,0.00,,SKC,0.00,VWS V14.01,2013-02-27 15:44:00,
2013-02-27 09:49:00,29.4,25.2,29.86,WNW,296,5.0,13.0,84,0.00,,SKC,0.00,VWS V14.01,2013-02-27 15:49:00,
2013-02-27 09:54:00,29.4,25.2,29.86,West,267,1.0,5.0,84,0.00,,SKC,0.00,VWS V14.01,2013-02-27 15:54:00,
2013-02-27 09:59:00,29.4,25.2,29.87,West,273,7.0,11.0,84,0.00,,SKC,0.00,VWS V14.01,2013-02-27 15:59:00,
2013-02-27 10:04:00,29.4,25.2,29.87,WNW,298,11.0,13.0,84,0.00,,SKC,0.00,VWS V14.01,2013-02-27 16:04:00,
2013-02-27 10:09:00,29.3,25.1,29.87,West,270,3.0,13.0,84,0.00,,SKC,0.00,VWS V14.01,2013-02-27 16:09:00,
2013-02-27 10:14:00,29.2,24.7,29.87,WNW,302,7.0,14.0,83,0.00,,SKC,0.00,VWS V14.01,2013-02-27 16:14:00,
2013-02-27 10:19:00,29.2,25.0,29.88,WNW,301,5.0,14.0,84,0.00,,SKC,0.00,VWS V14.01,2013-02-27 16:19:00,
2013-02-27 10:24:00,29.4,25.2,29.88,WNW,301,6.0,10.0,84,0.00,,SKC,0.00,VWS V14.01,2013-02-27 16:24:00,
2013-02-27 10:29:00,29.4,24.9,29.88,NW,308,5.0,15.0,83,0.00,,SKC,0.00,VWS V14.01,2013-02-27 16:29:00,
2013-02-27 10:34:00,29.5,25.0,29.88,West,281,5.0,7.0,83,0.00,,SKC,0.00,VWS V14.01,2013-02-27 16:34:00,
2013-02-27 10:39:00,29.6,25.1,29.88,West,275,7.0,14.0,83,0.00,,SKC,0.00,VWS V14.01,2013-02-27 16:39:00,
2013-02-27 10:45:00,29.6,24.8,29.88,NW,321,11.0,13.0,82,0.00,,SKC,0.00,VWS V14.01,2013-02-27 16:45:00,
2013-02-27 10:50:00,29.5,24.7,29.88,WNW,288,11.0,18.0,82,0.00,,SKC,0.00,VWS V14.01,2013-02-27 16:50:00,
2013-02-27 10:55:00,29.5,25.0,29.88,WNW,296,4.0,13.0,83,0.00,,SKC,0.00,VWS V14.01,2013-02-27 16:55:00,
2013-02-27 11:00:00,29.9,25.4,29.88,NW,326,3.0,16.0,83,0.00,,SKC,0.00,VWS V14.01,2013-02-27 17:00:00,
2013-02-27 11:05:00,30.5,25.7,29.89,West,279,11.0,11.0,82,0.00,,SKC,0.00,VWS V14.01,2013-02-27 17:05:00,
2013-02-27 11:10:00,31.0,25.9,29.89,West,259,7.0,17.0,81,0.00,,SKC,0.00,VWS V14.01,2013-02-27 17:10:00,
2013-02-27 11:15:00,31.4,26.0,29.88,WNW,283,10.0,21.0,80,0.00,,SKC,0.00,VWS V14.01,2013-02-27 17:15:00,
2013-02-27 11:20:00,31.3,25.6,29.88,WNW,296,6.0,21.0,79,0.00,,SKC,0.00,VWS V14.01,2013-02-27 17:20:00,
2013-02-27 11:25:00,31.5,25.8,29.88,NW,321,12.0,13.0,79,0.00,,SKC,0.00,VWS V14.01,2013-02-27 17:25:00,
2013-02-27 11:30:00,31.5,25.4,29.88,West,278,11.0,16.0,78,0.00,,SKC,0.00,VWS V14.01,2013-02-27 17:30:00,
2013-02-27 11:35:00,31.5,25.4,29.88,WNW,300,4.0,11.0,78,0.00,,SKC,0.00,VWS V14.01,2013-02-27 17:35:00,
2013-02-27 11:40:00,31.6,25.5,29.88,WNW,296,9.0,13.0,78,0.00,,SKC,0.00,VWS V14.01,2013-02-27 17:40:00,
2013-02-27 11:45:00,31.9,25.5,29.89,NW,304,6.0,16.0,77,0.00,,SKC,0.00,VWS V14.01,2013-02-27 17:45:00,
2013-02-27 11:50:00,31.9,25.8,29.89,WNW,284,5.0,16.0,78,0.00,,SKC,0.00,VWS V14.01,2013-02-27 17:50:00,
2013-02-27 11:55:00,32.4,26.0,29.89,WNW,292,2.0,6.0,77,0.00,,SKC,0.00,VWS V14.01,2013-02-27 17:55:00,
2013-02-27 12:02:00,33.1,26.0,29.88,WNW,294,4.0,4.0,75,0.00,,SKC,0.00,VWS V14.01,2013-02-27 18:02:00,
2013-02-27 12:07:00,33.3,25.9,29.88,West,277,7.0,14.0,74,0.00,,SKC,0.00,VWS V14.01,2013-02-27 18:07:00,
2013-02-27 12:12:00,33.5,26.1,29.88,North,350,11.0,14.0,74,0.01,,SKC,0.01,VWS V14.01,2013-02-27 18:12:00,
2013-02-27 12:17:00,33.7,26.3,29.88,NW,306,6.0,13.0,74,0.01,,SKC,0.01,VWS V14.01,2013-02-27 18:17:00,
2013-02-27 12:22:00,33.6,25.9,29.88,NW,304,10.0,17.0,73,0.01,,SKC,0.01,VWS V14.01,2013-02-27 18:22:00,
2013-02-27 12:27:00,33.3,25.6,29.89,WNW,291,9.0,15.0,73,0.01,,SKC,0.01,VWS V14.01,2013-02-27 18:27:00,
2013-02-27 12:32:00,33.5,25.8,29.88,West,268,7.0,15.0,73,0.01,,SKC,0.01,VWS V14.01,2013-02-27 18:32:00,
2013-02-27 12:37:00,33.8,26.1,29.88,West,277,3.0,13.0,73,0.01,,SKC,0.01,VWS V14.01,2013-02-27 18:37:00,
2013-02-27 12:42:00,34.0,25.9,29.88,NW,307,6.0,20.0,72,0.01,,SKC,0.01,VWS V14.01,2013-02-27 18:42:00,
2013-02-27 12:47:00,34.4,26.3,29.88,West,272,9.0,13.0,72,0.01,,SKC,0.01,VWS V14.01,2013-02-27 18:47:00,
2013-02-27 12:52:00,34.5,26.1,29.88,NW,306,10.0,19.0,71,0.01,,SKC,0.01,VWS V14.01,2013-02-27 18:52:00,
2013-02-27 12:57:00,34.4,25.6,29.88,WNW,298,13.0,21.0,70,0.01,,SKC,0.01,VWS V14.01,2013-02-27 18:57:00,
2013-02-27 13:02:00,34.4,26.0,29.88,WNW,302,9.0,21.0,71,0.01,,SKC,0.01,VWS V14.01,2013-02-27 19:02:00,
2013-02-27 13:07:00,34.8,26.0,29.88,WNW,288,6.0,16.0,70,0.01,,SKC,0.01,VWS V14.01,2013-02-27 19:07:00,
2013-02-27 13:12:00,35.0,26.2,29.88,NW,324,7.0,16.0,70,0.01,,SKC,0.01,VWS V14.01,2013-02-27 19:12:00,
2013-02-27 13:17:00,35.3,26.5,29.88,WNW,295,7.0,16.0,70,0.00,,SKC,0.01,VWS V14.01,2013-02-27 19:17:00,
2013-02-27 13:22:00,35.5,26.4,29.88,WNW,298,13.0,16.0,69,0.00,,SKC,0.01,VWS V14.01,2013-02-27 19:22:00,
2013-02-27 13:27:00,36.1,26.9,29.88,NW,321,8.0,20.0,69,0.00,,SKC,0.01,VWS V14.01,2013-02-27 19:27:00,
2013-02-27 13:32:00,36.5,27.3,29.88,NW,318,8.0,20.0,69,0.00,,SKC,0.01,VWS V14.01,2013-02-27 19:32:00,
2013-02-27 13:37:00,37.0,27.4,29.88,NW,309,9.0,14.0,68,0.00,,SKC,0.01,VWS V14.01,2013-02-27 19:37:00,
2013-02-27 13:42:00,37.1,27.2,29.88,WNW,298,3.0,16.0,67,0.00,,SKC,0.01,VWS V14.01,2013-02-27 19:42:00,
2013-02-27 13:47:00,37.7,27.8,29.88,WNW,292,9.0,12.0,67,0.00,,SKC,0.01,VWS V14.01,2013-02-27 19:47:00,
2013-02-27 13:52:00,37.9,27.2,29.88,NW,306,9.0,17.0,65,0.00,,SKC,0.01,VWS V14.01,2013-02-27 19:52:00,
2013-02-27 13:58:00,38.2,27.9,29.88,WNW,294,11.0,16.0,66,0.00,,SKC,0.01,VWS V14.01,2013-02-27 19:58:00,
2013-02-27 14:03:00,38.9,28.1,29.87,WNW,296,12.0,16.0,65,0.00,,SKC,0.01,VWS V14.01,2013-02-27 20:03:00,
2013-02-27 14:08:00,39.3,28.2,29.87,West,281,15.0,17.0,64,0.00,,SKC,0.01,VWS V14.01,2013-02-27 20:08:00,
2013-02-27 14:13:00,39.2,27.7,29.87,West,281,11.0,18.0,63,0.00,,SKC,0.01,VWS V14.01,2013-02-27 20:13:00,
2013-02-27 14:18:00,39.3,27.8,29.88,NW,317,10.0,15.0,63,0.00,,SKC,0.01,VWS V14.01,2013-02-27 20:18:00,
2013-02-27 14:23:00,39.6,28.1,29.88,NW,323,4.0,16.0,63,0.00,,SKC,0.01,VWS V14.01,2013-02-27 20:23:00,
2013-02-27 14:28:00,40.0,28.8,29.88,WNW,294,5.0,12.0,64,0.00,,SKC,0.01,VWS V14.01,2013-02-27 20:28:00,
2013-02-27 14:33:00,40.2,28.6,29.88,WNW,288,10.0,13.0,63,0.00,,SKC,0.01,VWS V14.01,2013-02-27 20:33:00,
2013-02-27 14:38:00,40.0,28.0,29.88,WNW,296,3.0,13.0,62,0.00,,SKC,0.01,VWS V14.01,2013-02-27 20:38:00,
2013-02-27 14:43:00,40.2,28.6,29.88,NW,312,3.0,14.0,63,0.00,,SKC,0.01,VWS V14.01,2013-02-27 20:43:00,
2013-02-27 14:48:00,40.7,27.9,29.88,NW,319,6.0,19.0,60,0.00,,SKC,0.01,VWS V14.01,2013-02-27 20:48:00,
2013-02-27 14:53:00,40.7,27.5,29.88,NW,321,12.0,20.0,59,0.00,,SKC,0.01,VWS V14.01,2013-02-27 20:53:00,
2013-02-27 14:58:00,40.2,27.8,29.88,NW,307,11.0,18.0,61,0.00,,SKC,0.01,VWS V14.01,2013-02-27 20:58:00,
2013-02-27 15:03:00,40.0,27.2,29.88,NW,325,5.0,18.0,60,0.00,,SKC,0.01,VWS V14.01,2013-02-27 21:03:00,
2013-02-27 15:08:00,39.9,27.6,29.88,NW,309,10.0,16.0,61,0.00,,SKC,0.01,VWS V14.01,2013-02-27 21:08:00,
2013-02-27 15:13:00,39.9,27.6,29.88,NW,323,16.0,16.0,61,0.00,,SKC,0.01,VWS V14.01,2013-02-27 21:13:00,
2013-02-27 15:18:00,40.0,28.0,29.88,NW,321,9.0,14.0,62,0.00,,SKC,0.01,VWS V14.01,2013-02-27 21:18:00,
2013-02-27 15:23:00,40.0,28.0,29.88,WNW,296,9.0,18.0,62,0.00,,SKC,0.01,VWS V14.01,2013-02-27 21:23:00,
2013-02-27 15:28:00,40.0,28.0,29.88,WNW,300,4.0,21.0,62,0.00,,SKC,0.01,VWS V14.01,2013-02-27 21:28:00,
2013-02-27 15:33:00,40.0,28.0,29.88,WNW,303,12.0,21.0,62,0.00,,SKC,0.01,VWS V14.01,2013-02-27 21:33:00,
2013-02-27 15:38:00,40.0,28.0,29.89,NW,321,3.0,14.0,62,0.00,,SKC,0.01,VWS V14.01,2013-02-27 21:38:00,
2013-02-27 15:43:00,39.9,28.3,29.89,NW,306,3.0,14.0,63,0.00,,SKC,0.01,VWS V14.01,2013-02-27 21:43:00,
2013-02-27 15:48:00,40.1,28.5,29.89,NW,316,4.0,10.0,63,0.00,,SKC,0.01,VWS V14.01,2013-02-27 21:48:00,
2013-02-27 15:53:00,40.3,28.7,29.89,NW,308,3.0,13.0,63,0.00,,SKC,0.01,VWS V14.01,2013-02-27 21:53:00,
2013-02-27 15:58:00,40.5,28.1,29.89,NNW,328,12.0,15.0,61,0.00,,SKC,0.01,VWS V14.01,2013-02-27 21:58:00,
2013-02-27 16:03:00,40.3,27.5,29.89,WNW,298,13.0,16.0,60,0.00,,SKC,0.01,VWS V14.01,2013-02-27 22:03:00,
2013-02-27 16:08:00,40.2,27.0,29.89,NW,305,7.0,15.0,59,0.00,,SKC,0.01,VWS V14.01,2013-02-27 22:08:00,
2013-02-27 16:13:00,40.2,27.0,29.89,NNW,336,5.0,19.0,59,0.00,,SKC,0.01,VWS V14.01,2013-02-27 22:13:00,
2013-02-27 16:18:00,40.4,27.2,29.89,WNW,299,9.0,21.0,59,0.00,,SKC,0.01,VWS V14.01,2013-02-27 22:18:00,
2013-02-27 16:23:00,40.4,27.2,29.90,NW,310,7.0,21.0,59,0.00,,SKC,0.01,VWS V14.01,2013-02-27 22:23:00,
2013-02-27 16:28:00,40.4,27.2,29.90,NNW,327,3.0,17.0,59,0.00,,SKC,0.01,VWS V14.01,2013-02-27 22:28:00,
2013-02-27 16:33:00,40.4,27.2,29.90,NNW,348,6.0,17.0,59,0.00,,SKC,0.01,VWS V14.01,2013-02-27 22:33:00,
2013-02-27 16:38:00,40.4,26.8,29.90,NW,326,8.0,15.0,58,0.00,,SKC,0.01,VWS V14.01,2013-02-27 22:38:00,
2013-02-27 16:43:00,40.4,26.8,29.90,WNW,286,11.0,15.0,58,0.00,,SKC,0.01,VWS V14.01,2013-02-27 22:43:00,
2013-02-27 16:48:00,40.2,26.6,29.90,NNW,339,5.0,17.0,58,0.00,,SKC,0.01,VWS V14.01,2013-02-27 22:48:00,
2013-02-27 16:53:00,40.2,26.6,29.90,NNW,333,5.0,17.0,58,0.00,,SKC,0.01,VWS V14.01,2013-02-27 22:53:00,
2013-02-27 16:58:00,40.1,26.5,29.91,NNW,329,5.0,17.0,58,0.00,,SKC,0.01,VWS V14.01,2013-02-27 22:58:00,
2013-02-27 17:03:00,40.0,26.4,29.91,NW,325,14.0,17.0,58,0.00,,SKC,0.01,VWS V14.01,2013-02-27 23:03:00,
2013-02-27 17:08:00,40.0,26.8,29.91,NW,319,9.0,16.0,59,0.00,,SKC,0.01,VWS V14.01,2013-02-27 23:08:00,
2013-02-27 17:13:00,39.9,27.2,29.91,NW,306,3.0,16.0,60,0.00,,SKC,0.01,VWS V14.01,2013-02-27 23:13:00,
2013-02-27 17:18:00,39.8,27.1,29.91,NW,309,5.0,12.0,60,0.00,,SKC,0.01,VWS V14.01,2013-02-27 23:18:00,
2013-02-27 17:24:00,39.6,26.9,29.91,NW,313,5.0,14.0,60,0.00,,SKC,0.01,VWS V14.01,2013-02-27 23:24:00,
2013-02-27 17:29:00,39.4,27.1,29.92,WNW,302,3.0,12.0,61,0.00,,SKC,0.01,VWS V14.01,2013-02-27 23:29:00,
2013-02-27 17:34:00,39.2,26.9,29.92,West,275,8.0,18.0,61,0.00,,SKC,0.01,VWS V14.01,2013-02-27 23:34:00,
2013-02-27 17:39:00,38.9,26.6,29.92,NW,311,6.0,19.0,61,0.00,,SKC,0.01,VWS V14.01,2013-02-27 23:39:00,
2013-02-27 17:44:00,38.8,26.5,29.92,NW,308,10.0,19.0,61,0.00,,SKC,0.01,VWS V14.01,2013-02-27 23:44:00,
2013-02-27 17:49:00,38.5,26.2,29.92,NW,315,5.0,19.0,61,0.00,,SKC,0.01,VWS V14.01,2013-02-27 23:49:00,
2013-02-27 17:54:00,38.3,26.0,29.93,NW,313,4.0,19.0,61,0.00,,SKC,0.01,VWS V14.01,2013-02-27 23:54:00,
2013-02-27 17:59:00,38.1,26.2,29.93,NNW,334,6.0,15.0,62,0.00,,SKC,0.01,VWS V14.01,2013-02-27 23:59:00,
2013-02-27 18:04:00,37.9,26.1,29.93,NW,319,7.0,10.0,62,0.00,,SKC,0.01,VWS V14.01,2013-02-28 00:04:00,
2013-02-27 18:09:00,37.7,26.3,29.93,NNW,327,3.0,10.0,63,0.00,,SKC,0.01,VWS V14.01,2013-02-28 00:09:00,
2013-02-27 18:14:00,37.6,26.2,29.93,NNW,327,5.0,5.0,63,0.00,,SKC,0.01,VWS V14.01,2013-02-28 00:14:00,
2013-02-27 18:19:00,37.4,26.0,29.93,NW,323,4.0,10.0,63,0.00,,SKC,0.01,VWS V14.01,2013-02-28 00:19:00,
2013-02-27 18:24:00,37.3,26.3,29.93,NW,319,1.0,3.0,64,0.00,,SKC,0.01,VWS V14.01,2013-02-28 00:24:00,
2013-02-27 18:29:00,37.2,26.2,29.94,NW,309,4.0,10.0,64,0.00,,SKC,0.01,VWS V14.01,2013-02-28 00:29:00,
2013-02-27 18:34:00,37.0,26.0,29.94,NW,323,3.0,9.0,64,0.00,,SKC,0.01,VWS V14.01,2013-02-28 00:34:00,
2013-02-27 18:39:00,37.0,26.0,29.94,NNW,328,4.0,13.0,64,0.00,,SKC,0.01,VWS V14.01,2013-02-28 00:39:00,
2013-02-27 18:44:00,36.9,25.9,29.94,NW,318,4.0,6.0,64,0.00,,SKC,0.01,VWS V14.01,2013-02-28 00:44:00,
2013-02-27 18:49:00,36.8,25.4,29.94,NW,317,3.0,13.0,63,0.00,,SKC,0.01,VWS V14.01,2013-02-28 00:49:00,
2013-02-27 18:54:00,36.7,25.3,29.94,NNW,328,4.0,5.0,63,0.00,,SKC,0.01,VWS V14.01,2013-02-28 00:54:00,
2013-02-27 18:59:00,36.6,24.8,29.94,NW,323,9.0,15.0,62,0.00,,SKC,0.01,VWS V14.01,2013-02-28 00:59:00,
2013-02-27 19:04:00,36.7,24.9,29.94,NW,322,4.0,19.0,62,0.00,,SKC,0.01,VWS V14.01,2013-02-28 01:04:00,
2013-02-27 19:09:00,36.6,24.8,29.95,NW,313,3.0,19.0,62,0.00,,SKC,0.01,VWS V14.01,2013-02-28 01:09:00,
2013-02-27 19:14:00,36.5,25.1,29.94,WNW,293,5.0,7.0,63,0.00,,SKC,0.01,VWS V14.01,2013-02-28 01:14:00,
2013-02-27 19:19:00,36.4,25.0,29.95,NW,310,4.0,11.0,63,0.00,,SKC,0.01,VWS V14.01,2013-02-28 01:19:00,
2013-02-27 19:24:00,36.2,25.2,29.95,NW,319,5.0,10.0,64,0.00,,SKC,0.01,VWS V14.01,2013-02-28 01:24:00,
2013-02-27 19:29:00,36.1,25.5,29.95,WNW,292,3.0,15.0,65,0.00,,SKC,0.01,VWS V14.01,2013-02-28 01:29:00,
2013-02-27 19:34:00,35.9,25.7,29.95,West,281,9.0,9.0,66,0.00,,SKC,0.01,VWS V14.01,2013-02-28 01:34:00,
2013-02-27 19:39:00,35.7,25.8,29.95,WNW,294,3.0,11.0,67,0.00,,SKC,0.01,VWS V14.01,2013-02-28 01:39:00,
2013-02-27 19:45:00,35.5,26.0,29.95,NW,316,3.0,7.0,68,0.00,,SKC,0.01,VWS V14.01,2013-02-28 01:45:00,
2013-02-27 19:50:00,35.4,26.3,29.95,NW,306,4.0,11.0,69,0.00,,SKC,0.01,VWS V14.01,2013-02-28 01:50:00,
2013-02-27 19:55:00,35.3,25.8,29.95,WNW,294,9.0,11.0,68,0.00,,SKC,0.01,VWS V14.01,2013-02-28 01:55:00,
2013-02-27 20:00:00,35.3,25.8,29.95,NW,318,4.0,11.0,68,0.00,,SKC,0.01,VWS V14.01,2013-02-28 02:00:00,
2013-02-27 20:05:00,35.2,25.7,29.95,WNW,289,5.0,7.0,68,0.00,,SKC,0.01,VWS V14.01,2013-02-28 02:05:00,
2013-02-27 20:10:00,35.2,25.7,29.95,WNW,294,9.0,16.0,68,0.00,,SKC,0.01,VWS V14.01,2013-02-28 02:10:00,
2013-02-27 20:15:00,35.2,25.7,29.96,NW,309,3.0,4.0,68,0.00,,SKC,0.01,VWS V14.01,2013-02-28 02:15:00,
2013-02-27 20:20:00,34.9,25.8,29.96,WNW,286,4.0,6.0,69,0.00,,SKC,0.01,VWS V14.01,2013-02-28 02:20:00,
2013-02-27 20:25:00,34.6,25.8,29.96,WNW,303,2.0,6.0,70,0.00,,SKC,0.01,VWS V14.01,2013-02-28 02:25:00,
2013-02-27 20:30:00,34.4,25.6,29.96,WNW,300,7.0,7.0,70,0.00,,SKC,0.01,VWS V14.01,2013-02-28 02:30:00,
2013-02-27 20:35:00,34.3,25.9,29.96,WNW,296,6.0,6.0,71,0.00,,SKC,0.01,VWS V14.01,2013-02-28 02:35:00,
2013-02-27 20:40:00,34.0,25.9,29.96,NW,304,9.0,10.0,72,0.00,,SKC,0.01,VWS V14.01,2013-02-28 02:40:00,
2013-02-27 20:45:00,33.8,26.1,29.96,WNW,291,4.0,10.0,73,0.00,,SKC,0.01,VWS V14.01,2013-02-28 02:45:00,
2013-02-27 20:50:00,33.7,26.3,29.96,NW,316,3.0,11.0,74,0.00,,SKC,0.01,VWS V14.01,2013-02-28 02:50:00,
2013-02-27 20:55:00,33.6,26.2,29.96,WNW,287,5.0,6.0,74,0.00,,SKC,0.01,VWS V14.01,2013-02-28 02:55:00,
2013-02-27 21:00:00,33.5,26.4,29.97,WNW,284,7.0,8.0,75,0.00,,SKC,0.01,VWS V14.01,2013-02-28 03:00:00,
2013-02-27 21:05:00,33.5,26.4,29.97,NW,309,10.0,11.0,75,0.00,,SKC,0.01,VWS V14.01,2013-02-28 03:05:00,
2013-02-27 21:10:00,33.7,26.6,29.96,WNW,299,3.0,14.0,75,0.00,,SKC,0.01,VWS V14.01,2013-02-28 03:10:00,
2013-02-27 21:15:00,33.7,26.6,29.97,WNW,300,4.0,15.0,75,0.00,,SKC,0.01,VWS V14.01,2013-02-28 03:15:00,
2013-02-27 21:20:00,33.8,26.7,29.97,WNW,285,5.0,15.0,75,0.00,,SKC,0.01,VWS V14.01,2013-02-28 03:20:00,
2013-02-27 21:25:00,33.8,26.7,29.97,NW,315,8.0,8.0,75,0.00,,SKC,0.01,VWS V14.01,2013-02-28 03:25:00,
2013-02-27 21:30:00,33.6,26.5,29.97,WNW,288,3.0,9.0,75,0.00,,SKC,0.01,VWS V14.01,2013-02-28 03:30:00,
2013-02-27 21:35:00,33.4,26.3,29.97,WNW,293,3.0,11.0,75,0.00,,SKC,0.01,VWS V14.01,2013-02-28 03:35:00,
2013-02-27 21:41:00,33.3,26.6,29.98,West,281,5.0,11.0,76,0.00,,SKC,0.01,VWS V14.01,2013-02-28 03:41:00,
2013-02-27 21:46:00,33.2,26.5,29.98,WNW,298,4.0,11.0,76,0.00,,SKC,0.01,VWS V14.01,2013-02-28 03:46:00,
2013-02-27 21:51:00,33.2,26.8,29.98,West,278,6.0,11.0,77,0.00,,SKC,0.01,VWS V14.01,2013-02-28 03:51:00,
2013-02-27 21:56:00,33.2,26.8,29.98,West,279,4.0,13.0,77,0.00,,SKC,0.01,VWS V14.01,2013-02-28 03:56:00,
2013-02-27 22:01:00,33.2,26.8,29.98,WNW,293,10.0,13.0,77,0.00,,SKC,0.01,VWS V14.01,2013-02-28 04:01:00,
2013-02-27 22:06:00,33.2,27.1,29.98,WNW,288,5.0,13.0,78,0.00,,SKC,0.01,VWS V14.01,2013-02-28 04:06:00,
2013-02-27 22:11:00,33.1,27.0,29.98,NW,309,7.0,13.0,78,0.00,,SKC,0.01,VWS V14.01,2013-02-28 04:11:00,
2013-02-27 22:16:00,32.9,26.8,29.98,WNW,286,3.0,7.0,78,0.00,,SKC,0.01,VWS V14.01,2013-02-28 04:16:00,
2013-02-27 22:21:00,32.7,26.6,29.98,WNW,291,3.0,12.0,78,0.00,,SKC,0.01,VWS V14.01,2013-02-28 04:21:00,
2013-02-27 22:26:00,32.5,26.7,29.98,West,270,5.0,13.0,79,0.00,,SKC,0.01,VWS V14.01,2013-02-28 04:26:00,
2013-02-27 22:31:00,32.5,26.7,29.99,NW,309,4.0,13.0,79,0.00,,SKC,0.01,VWS V14.01,2013-02-28 04:31:00,
2013-02-27 22:36:00,32.4,26.6,29.98,WNW,284,2.0,9.0,79,0.00,,SKC,0.01,VWS V14.01,2013-02-28 04:36:00,
2013-02-27 22:41:00,32.3,26.5,29.98,WNW,286,2.0,11.0,79,0.00,,SKC,0.01,VWS V14.01,2013-02-28 04:41:00,
2013-02-27 22:46:00,32.2,26.7,29.98,NW,311,12.0,12.0,80,0.00,,SKC,0.01,VWS V14.01,2013-02-28 04:46:00,
2013-02-27 22:51:00,32.2,26.7,29.98,NW,306,4.0,13.0,80,0.00,,SKC,0.01,VWS V14.01,2013-02-28 04:51:00,
2013-02-27 22:56:00,32.1,26.6,29.98,WNW,295,3.0,12.0,80,0.00,,SKC,0.01,VWS V14.01,2013-02-28 04:56:00,
2013-02-27 23:00:00,32.0,26.5,29.99,WNW,303,2.0,12.0,80,0.00,,SKC,0.01,VWS V14.01,2013-02-28 05:00:00,
2013-02-27 23:01:00,32.0,26.5,29.99,WNW,301,3.0,12.0,80,0.00,,SKC,0.01,VWS V14.01,2013-02-28 05:01:00,
2013-02-27 23:02:00,32.0,26.5,29.98,WNW,286,4.0,12.0,80,0.00,,SKC,0.01,VWS V14.01,2013-02-28 05:02:00,
2013-02-27 23:07:00,31.9,26.7,29.98,WNW,292,7.0,12.0,81,0.00,,SKC,0.01,VWS V14.01,2013-02-28 05:07:00,
2013-02-27 23:12:00,31.8,26.6,29.99,NW,321,9.0,12.0,81,0.00,,SKC,0.01,VWS V14.01,2013-02-28 05:12:00,
2013-02-27 23:17:00,31.7,26.5,29.99,WNW,296,3.0,6.0,81,0.00,,SKC,0.01,VWS V14.01,2013-02-28 05:17:00,
2013-02-27 23:22:00,31.5,26.4,29.99,NW,312,7.0,13.0,81,0.00,,SKC,0.01,VWS V14.01,2013-02-28 05:22:00,
2013-02-27 23:27:00,31.4,26.2,29.99,NW,305,6.0,7.0,81,0.00,,SKC,0.01,VWS V14.01,2013-02-28 05:27:00,
2013-02-27 23:32:00,31.2,26.4,29.99,WNW,302,4.0,11.0,82,0.00,,SKC,0.01,VWS V14.01,2013-02-28 05:32:00,
2013-02-27 23:37:00,31.1,26.3,29.99,WNW,301,4.0,9.0,82,0.00,,SKC,0.01,VWS V14.01,2013-02-28 05:37:00,
2013-02-27 23:42:00,31.0,26.2,29.98,NW,306,3.0,10.0,82,0.00,,SKC,0.01,VWS V14.01,2013-02-28 05:42:00,
2013-02-27 23:47:00,30.8,26.0,29.98,NW,309,2.0,6.0,82,0.00,,SKC,0.01,VWS V14.01,2013-02-28 05:47:00,
2013-02-27 23:52:00,30.8,26.0,29.98,NW,313,7.0,9.0,82,0.00,,SKC,0.01,VWS V14.01,2013-02-28 05:52:00,
2013-02-27 23:57:00,30.8,26.3,29.98,NNW,329,9.0,9.0,83,0.00,,SKC,0.00,VWS V14.01,2013-02-28 05:57:00,